Time,TemperatureF,DewpointF,PressureIn,WindDirection,WindDirectionDegrees,WindSpeedMPH,WindSpeedGustMPH,Humidity,HourlyPrecipIn,Conditions,Clouds,dailyrainin,SoftwareType,DateUTC
2013-04-12 00:00:00,38.5,19.5,30.05,SSW,203,6.7,7.2,46,0.00,,,0.00,WUHU216HW,2013-04-12 07:00:00,
2013-04-12 00:05:00,38.5,19.5,30.05,WSW,248,3.4,7.4,46,0.00,,,0.00,WUHU216HW,2013-04-12 07:05:00,
2013-04-12 00:10:00,38.5,19.5,30.06,WSW,248,6.5,7.4,46,0.00,,,0.00,WUHU216HW,2013-04-12 07:10:00,
2013-04-12 00:15:00,38.5,19.5,30.06,WSW,248,6.0,7.6,46,0.00,,,0.00,WUHU216HW,2013-04-12 07:15:00,
2013-04-12 00:20:00,38.5,19.5,30.06,SSW,203,7.6,9.4,46,0.00,,,0.00,WUHU216HW,2013-04-12 07:20:00,
2013-04-12 00:25:00,38.5,18.9,30.06,SW,225,3.8,9.4,45,0.00,,,0.00,WUHU216HW,2013-04-12 07:25:00,
2013-04-12 00:30:00,38.3,19.3,30.06,WSW,248,6.3,7.6,46,0.00,,,0.00,WUHU216HW,2013-04-12 07:30:00,
2013-04-12 00:35:00,38.2,19.1,30.06,WSW,248,6.3,7.6,46,0.00,,,0.00,WUHU216HW,2013-04-12 07:35:00,
2013-04-12 00:40:00,38.0,18.9,30.06,WSW,248,4.7,8.1,46,0.00,,,0.00,WUHU216HW,2013-04-12 07:40:00,
2013-04-12 00:45:00,38.0,18.9,30.06,WSW,248,4.7,8.1,46,0.00,,,0.00,WUHU216HW,2013-04-12 07:45:00,
2013-04-12 00:50:00,38.0,18.9,30.06,SW,225,8.5,8.5,46,0.00,,,0.00,WUHU216HW,2013-04-12 07:50:00,
2013-04-12 00:55:00,38.0,18.9,30.06,SW,225,4.3,8.5,46,0.00,,,0.00,WUHU216HW,2013-04-12 07:55:00,
2013-04-12 01:00:00,38.2,18.5,30.06,WSW,248,4.7,8.5,45,0.00,,,0.00,WUHU216HW,2013-04-12 08:00:00,
2013-04-12 01:05:00,38.2,18.5,30.06,SW,225,4.9,8.3,45,0.00,,,0.00,WUHU216HW,2013-04-12 08:05:00,
2013-04-12 01:10:00,38.0,18.9,30.05,SW,225,7.6,8.3,46,0.00,,,0.00,WUHU216HW,2013-04-12 08:10:00,
2013-04-12 01:15:00,38.0,18.9,30.06,WSW,248,5.4,8.5,46,0.00,,,0.00,WUHU216HW,2013-04-12 08:15:00,
2013-04-12 01:20:00,37.8,18.3,30.05,SW,225,7.6,8.5,45,0.00,,,0.00,WUHU216HW,2013-04-12 08:20:00,
2013-04-12 01:25:00,38.0,18.4,30.06,SW,225,7.2,8.3,45,0.00,,,0.00,WUHU216HW,2013-04-12 08:25:00,
2013-04-12 01:30:00,37.8,18.7,30.05,WSW,248,6.3,9.6,46,0.00,,,0.00,WUHU216HW,2013-04-12 08:30:00,
2013-04-12 01:35:00,37.4,18.5,30.05,WSW,248,4.0,9.6,46,0.00,,,0.00,WUHU216HW,2013-04-12 08:35:00,
2013-04-12 01:40:00,37.3,18.3,30.05,WSW,248,5.6,8.5,46,0.00,,,0.00,WUHU216HW,2013-04-12 08:40:00,
2013-04-12 01:45:00,37.1,18.1,30.05,WSW,248,5.4,8.5,46,0.00,,,0.00,WUHU216HW,2013-04-12 08:45:00,
2013-04-12 01:50:00,37.1,18.1,30.05,WSW,248,6.5,7.6,46,0.00,,,0.00,WUHU216HW,2013-04-12 08:50:00,
2013-04-12 01:55:00,37.1,18.1,30.05,WSW,248,5.4,8.5,46,0.00,,,0.00,WUHU216HW,2013-04-12 08:55:00,
2013-04-12 02:00:00,37.1,18.1,30.05,WSW,248,6.3,9.4,46,0.00,,,0.00,WUHU216HW,2013-04-12 09:00:00,
2013-04-12 02:05:00,37.1,18.1,30.05,West,270,4.5,9.4,46,0.00,,,0.00,WUHU216HW,2013-04-12 09:05:00,
2013-04-12 02:10:00,36.9,17.9,30.05,WSW,248,5.1,8.1,46,0.00,,,0.00,WUHU216HW,2013-04-12 09:10:00,
2013-04-12 02:15:00,36.9,17.9,30.05,WSW,248,6.3,8.1,46,0.00,,,0.00,WUHU216HW,2013-04-12 09:15:00,
2013-04-12 02:20:00,36.7,17.8,30.04,WSW,248,5.6,7.4,46,0.00,,,0.00,WUHU216HW,2013-04-12 09:20:00,
2013-04-12 02:25:00,36.5,17.7,30.04,SW,225,3.4,6.5,46,0.00,,,0.00,WUHU216HW,2013-04-12 09:25:00,
2013-04-12 02:30:00,36.4,17.5,30.04,WSW,248,5.4,6.5,46,0.00,,,0.00,WUHU216HW,2013-04-12 09:30:00,
2013-04-12 02:35:00,36.4,17.5,30.04,WSW,248,2.9,5.4,46,0.00,,,0.00,WUHU216HW,2013-04-12 09:35:00,
2013-04-12 02:40:00,36.4,18.0,30.04,WSW,248,3.4,6.3,47,0.00,,,0.00,WUHU216HW,2013-04-12 09:40:00,
2013-04-12 02:45:00,36.2,17.8,30.04,SW,225,4.5,6.3,47,0.00,,,0.00,WUHU216HW,2013-04-12 09:45:00,
2013-04-12 02:50:00,36.2,17.8,30.04,SW,225,4.3,7.4,47,0.00,,,0.00,WUHU216HW,2013-04-12 09:50:00,
2013-04-12 02:55:00,36.0,17.6,30.04,South,180,3.4,7.4,47,0.00,,,0.00,WUHU216HW,2013-04-12 09:55:00,
2013-04-12 03:00:00,36.0,17.6,30.03,SW,225,3.1,6.5,47,0.00,,,0.00,WUHU216HW,2013-04-12 10:00:00,
2013-04-12 03:05:00,36.0,17.6,30.04,SW,225,5.4,7.6,47,0.00,,,0.00,WUHU216HW,2013-04-12 10:05:00,
2013-04-12 03:10:00,36.2,17.8,30.04,WSW,248,3.4,7.6,47,0.00,,,0.00,WUHU216HW,2013-04-12 10:10:00,
2013-04-12 03:15:00,36.2,17.8,30.04,SSW,203,2.9,7.2,47,0.00,,,0.00,WUHU216HW,2013-04-12 10:15:00,
2013-04-12 03:20:00,36.0,17.6,30.04,SW,225,3.1,6.9,47,0.00,,,0.00,WUHU216HW,2013-04-12 10:20:00,
2013-04-12 03:25:00,35.8,17.5,30.04,WSW,248,3.8,6.9,47,0.00,,,0.00,WUHU216HW,2013-04-12 10:25:00,
2013-04-12 03:30:00,35.6,17.4,30.04,West,270,5.4,6.0,47,0.00,,,0.00,WUHU216HW,2013-04-12 10:30:00,
2013-04-12 03:35:00,35.6,17.8,30.03,SW,225,5.4,7.6,48,0.00,,,0.00,WUHU216HW,2013-04-12 10:35:00,
2013-04-12 03:40:00,35.6,17.8,30.03,SW,225,6.5,8.7,48,0.00,,,0.00,WUHU216HW,2013-04-12 10:40:00,
2013-04-12 03:45:00,35.6,17.8,30.03,WNW,293,4.9,8.7,48,0.00,,,0.00,WUHU216HW,2013-04-12 10:45:00,
2013-04-12 03:50:00,35.6,17.8,30.03,SSW,203,3.8,8.5,48,0.00,,,0.00,WUHU216HW,2013-04-12 10:50:00,
2013-04-12 03:55:00,35.6,17.8,30.04,West,270,6.0,6.9,48,0.00,,,0.00,WUHU216HW,2013-04-12 10:55:00,
2013-04-12 04:00:00,35.6,17.8,30.04,WSW,248,2.5,6.9,48,0.00,,,0.00,WUHU216HW,2013-04-12 11:00:00,
2013-04-12 04:05:00,35.5,17.6,30.04,WSW,248,3.4,6.9,48,0.00,,,0.00,WUHU216HW,2013-04-12 11:05:00,
2013-04-12 04:10:00,35.3,17.5,30.04,West,270,3.4,6.9,48,0.00,,,0.00,WUHU216HW,2013-04-12 11:10:00,
2013-04-12 04:15:00,35.1,17.4,30.04,NNW,338,0.7,6.9,48,0.00,,,0.00,WUHU216HW,2013-04-12 11:15:00,
2013-04-12 04:20:00,34.9,17.2,30.03,ESE,113,0.7,3.6,48,0.00,,,0.00,WUHU216HW,2013-04-12 11:20:00,
2013-04-12 04:25:00,34.6,17.3,30.04,East,90,0.4,2.7,49,0.00,,,0.00,WUHU216HW,2013-04-12 11:25:00,
2013-04-12 04:30:00,34.4,17.1,30.04,SE,135,1.6,2.7,49,0.00,,,0.00,WUHU216HW,2013-04-12 11:30:00,
2013-04-12 04:35:00,34.0,17.3,30.04,ENE,68,2.0,2.0,50,0.00,,,0.00,WUHU216HW,2013-04-12 11:35:00,
2013-04-12 04:40:00,33.8,17.1,30.04,ESE,113,1.1,2.5,50,0.00,,,0.00,WUHU216HW,2013-04-12 11:40:00,
2013-04-12 04:45:00,33.7,16.9,30.04,ESE,113,0.0,2.5,50,0.00,,,0.00,WUHU216HW,2013-04-12 11:45:00,
2013-04-12 04:50:00,33.1,16.9,30.04,SSE,158,2.0,2.2,51,0.00,,,0.00,WUHU216HW,2013-04-12 11:50:00,
2013-04-12 04:55:00,32.9,16.8,30.04,ESE,113,2.2,2.5,51,0.00,,,0.00,WUHU216HW,2013-04-12 11:55:00,
2013-04-12 05:00:00,32.6,16.8,30.04,NE,45,2.5,4.0,52,0.00,,,0.00,WUHU216HW,2013-04-12 12:00:00,
2013-04-12 05:05:00,32.0,16.4,30.04,SE,135,0.4,4.0,52,0.00,,,0.00,WUHU216HW,2013-04-12 12:05:00,
2013-04-12 05:10:00,32.0,16.4,30.04,ESE,113,0.0,2.9,52,0.00,,,0.00,WUHU216HW,2013-04-12 12:10:00,
2013-04-12 05:15:00,31.9,16.2,30.04,SSE,158,1.8,3.4,52,0.00,,,0.00,WUHU216HW,2013-04-12 12:15:00,
2013-04-12 05:20:00,31.5,16.3,30.03,SSE,158,2.9,3.4,53,0.00,,,0.00,WUHU216HW,2013-04-12 12:20:00,
2013-04-12 05:25:00,31.1,15.9,30.03,ENE,68,0.0,3.1,53,0.00,,,0.00,WUHU216HW,2013-04-12 12:25:00,
2013-04-12 05:30:00,31.0,16.2,30.04,SE,135,1.6,2.9,54,0.00,,,0.00,WUHU216HW,2013-04-12 12:30:00,
2013-04-12 05:35:00,30.8,16.0,30.03,ESE,113,0.4,1.6,54,0.00,,,0.00,WUHU216HW,2013-04-12 12:35:00,
2013-04-12 05:40:00,30.6,15.8,30.04,SE,135,0.0,1.6,54,0.00,,,0.00,WUHU216HW,2013-04-12 12:40:00,
2013-04-12 05:45:00,30.2,15.5,30.04,SW,225,0.0,0.4,54,0.00,,,0.00,WUHU216HW,2013-04-12 12:45:00,
2013-04-12 05:50:00,30.1,15.8,30.04,SSW,203,0.7,0.7,55,0.00,,,0.00,WUHU216HW,2013-04-12 12:50:00,
2013-04-12 05:55:00,29.9,15.6,30.04,SSW,203,0.9,2.5,55,0.00,,,0.00,WUHU216HW,2013-04-12 12:55:00,
2013-04-12 06:00:00,29.9,15.6,30.05,SSE,158,0.9,2.5,55,0.00,,,0.00,WUHU216HW,2013-04-12 13:00:00,
2013-04-12 06:05:00,29.7,15.8,30.05,ESE,113,1.1,2.5,56,0.00,,,0.00,WUHU216HW,2013-04-12 13:05:00,
2013-04-12 06:10:00,29.5,15.7,30.05,ESE,113,0.4,2.5,56,0.00,,,0.00,WUHU216HW,2013-04-12 13:10:00,
2013-04-12 06:15:00,29.2,15.8,30.05,WSW,248,1.1,3.1,57,0.00,,,0.00,WUHU216HW,2013-04-12 13:15:00,
2013-04-12 06:20:00,29.2,15.8,30.05,SW,225,0.4,3.1,57,0.00,,,0.00,WUHU216HW,2013-04-12 13:20:00,
2013-04-12 06:25:00,29.2,15.8,30.06,SSE,158,0.0,2.2,57,0.00,,,0.00,WUHU216HW,2013-04-12 13:25:00,
2013-04-12 06:30:00,29.2,16.2,30.06,SE,135,0.0,0.7,58,0.00,,,0.00,WUHU216HW,2013-04-12 13:30:00,
2013-04-12 06:35:00,29.2,16.2,30.06,SE,135,0.4,1.6,58,0.00,,,0.00,WUHU216HW,2013-04-12 13:35:00,
2013-04-12 06:40:00,29.3,16.7,30.06,SE,135,0.2,1.6,59,0.00,,,0.00,WUHU216HW,2013-04-12 13:40:00,
2013-04-12 06:45:00,29.5,16.9,30.06,SE,135,0.0,0.4,59,0.00,,,0.00,WUHU216HW,2013-04-12 13:45:00,
2013-04-12 06:50:00,29.5,16.9,30.06,East,90,0.4,1.1,59,0.00,,,0.00,WUHU216HW,2013-04-12 13:50:00,
2013-04-12 06:55:00,29.7,17.6,30.06,ENE,68,0.0,1.6,60,0.00,,,0.00,WUHU216HW,2013-04-12 13:55:00,
2013-04-12 07:00:00,29.9,18.0,30.06,East,90,1.1,1.6,61,0.00,,,0.00,WUHU216HW,2013-04-12 14:00:00,
2013-04-12 07:05:00,30.4,18.5,30.06,NE,45,0.0,1.1,61,0.00,,,0.00,WUHU216HW,2013-04-12 14:05:00,
2013-04-12 07:10:00,31.0,19.4,30.06,East,90,0.0,1.1,62,0.00,,,0.00,WUHU216HW,2013-04-12 14:10:00,
2013-04-12 07:15:00,31.7,20.2,30.06,East,90,0.0,0.7,62,0.00,,,0.00,WUHU216HW,2013-04-12 14:15:00,
2013-04-12 07:20:00,32.4,20.9,30.06,NNE,23,0.0,0.0,62,0.00,,,0.00,WUHU216HW,2013-04-12 14:20:00,
2013-04-12 07:25:00,33.5,21.8,30.06,NE,45,0.7,0.9,62,0.00,,,0.00,WUHU216HW,2013-04-12 14:25:00,
2013-04-12 07:30:00,34.9,22.9,30.06,ENE,68,0.7,1.6,61,0.00,,,0.00,WUHU216HW,2013-04-12 14:30:00,
2013-04-12 07:35:00,36.2,23.7,30.07,North,0,1.3,2.0,60,0.00,,,0.00,WUHU216HW,2013-04-12 14:35:00,
2013-04-12 07:40:00,37.1,24.1,30.06,NNE,23,1.1,2.0,59,0.00,,,0.00,WUHU216HW,2013-04-12 14:40:00,
2013-04-12 07:45:00,38.2,24.7,30.06,NW,315,1.8,2.0,58,0.00,,,0.00,WUHU216HW,2013-04-12 14:45:00,
2013-04-12 07:50:00,39.6,25.1,30.06,NW,315,2.9,3.1,56,0.00,,,0.00,WUHU216HW,2013-04-12 14:50:00,
2013-04-12 07:55:00,40.9,25.4,30.07,NW,315,1.8,4.0,54,0.00,,,0.00,WUHU216HW,2013-04-12 14:55:00,
2013-04-12 08:00:00,41.8,25.4,30.07,NW,315,1.1,4.0,52,0.00,,,0.00,WUHU216HW,2013-04-12 15:00:00,
2013-04-12 08:05:00,42.5,26.1,30.07,NW,315,0.4,3.4,52,0.00,,,0.00,WUHU216HW,2013-04-12 15:05:00,
2013-04-12 08:10:00,43.2,26.3,30.07,ENE,68,0.2,1.8,51,0.00,,,0.00,WUHU216HW,2013-04-12 15:10:00,
2013-04-12 08:15:00,43.9,26.6,30.07,South,180,0.4,1.1,50,0.00,,,0.00,WUHU216HW,2013-04-12 15:15:00,
2013-04-12 08:20:00,45.0,25.9,30.07,NNE,23,1.1,1.3,47,0.00,,,0.00,WUHU216HW,2013-04-12 15:20:00,
2013-04-12 08:25:00,46.4,26.6,30.07,ENE,68,2.0,2.5,46,0.00,,,0.00,WUHU216HW,2013-04-12 15:25:00,
2013-04-12 08:30:00,47.9,26.8,30.07,East,90,0.9,2.5,44,0.00,,,0.00,WUHU216HW,2013-04-12 15:30:00,
2013-04-12 08:35:00,49.0,27.3,30.07,NW,315,1.3,2.0,43,0.00,,,0.00,WUHU216HW,2013-04-12 15:35:00,
2013-04-12 08:40:00,49.9,28.2,30.07,South,180,0.4,1.8,43,0.00,,,0.00,WUHU216HW,2013-04-12 15:40:00,
2013-04-12 08:45:00,50.8,28.5,30.07,NNW,338,0.4,1.8,42,0.00,,,0.00,WUHU216HW,2013-04-12 15:45:00,
2013-04-12 08:50:00,51.7,28.1,30.07,WNW,293,1.1,1.8,40,0.00,,,0.00,WUHU216HW,2013-04-12 15:50:00,
2013-04-12 08:55:00,52.6,28.9,30.07,WSW,248,2.2,3.4,40,0.00,,,0.00,WUHU216HW,2013-04-12 15:55:00,
2013-04-12 09:00:00,53.3,27.6,30.07,SE,135,1.3,3.4,37,0.00,,,0.00,WUHU216HW,2013-04-12 16:00:00,
2013-04-12 09:05:00,54.2,28.3,30.07,NNE,23,1.8,3.4,37,0.00,,,0.00,WUHU216HW,2013-04-12 16:05:00,
2013-04-12 09:10:00,55.4,27.3,30.07,NE,45,3.4,6.3,34,0.00,,,0.00,WUHU216HW,2013-04-12 16:10:00,
2013-04-12 09:15:00,56.0,29.2,30.07,ENE,68,2.5,6.3,36,0.00,,,0.00,WUHU216HW,2013-04-12 16:15:00,
2013-04-12 09:20:00,56.5,27.5,30.07,ENE,68,2.5,5.4,33,0.00,,,0.00,WUHU216HW,2013-04-12 16:20:00,
2013-04-12 09:25:00,57.1,28.1,30.07,East,90,5.8,6.0,33,0.00,,,0.00,WUHU216HW,2013-04-12 16:25:00,
2013-04-12 09:30:00,58.0,28.9,30.07,North,0,1.3,6.0,33,0.00,,,0.00,WUHU216HW,2013-04-12 16:30:00,
2013-04-12 09:35:00,59.2,30.0,30.07,SSE,158,3.4,5.8,33,0.00,,,0.00,WUHU216HW,2013-04-12 16:35:00,
2013-04-12 09:40:00,60.1,30.0,30.07,SSE,158,3.4,4.0,32,0.00,,,0.00,WUHU216HW,2013-04-12 16:40:00,
2013-04-12 09:45:00,60.8,29.2,30.07,ENE,68,5.8,6.3,30,0.00,,,0.00,WUHU216HW,2013-04-12 16:45:00,
2013-04-12 09:50:00,60.8,26.3,30.07,East,90,5.8,6.9,27,0.00,,,0.00,WUHU216HW,2013-04-12 16:50:00,
2013-04-12 09:55:00,60.7,28.1,30.07,South,180,1.3,6.9,29,0.00,,,0.00,WUHU216HW,2013-04-12 16:55:00,
2013-04-12 10:00:00,61.4,26.7,30.07,NNE,23,2.5,5.4,27,0.00,,,0.00,WUHU216HW,2013-04-12 17:00:00,
2013-04-12 10:05:00,62.5,29.6,30.07,WSW,248,5.4,5.6,29,0.00,,,0.00,WUHU216HW,2013-04-12 17:05:00,
2013-04-12 10:10:00,63.9,30.0,30.07,South,180,4.5,8.5,28,0.00,,,0.00,WUHU216HW,2013-04-12 17:10:00,
2013-04-12 10:15:00,65.0,31.9,30.07,SSW,203,7.8,8.5,29,0.00,,,0.00,WUHU216HW,2013-04-12 17:15:00,
2013-04-12 10:20:00,65.9,31.7,30.08,ESE,113,5.8,7.8,28,0.00,,,0.00,WUHU216HW,2013-04-12 17:20:00,
2013-04-12 10:25:00,66.2,29.0,30.08,NNE,23,5.4,8.5,25,0.00,,,0.00,WUHU216HW,2013-04-12 17:25:00,
2013-04-12 10:30:00,66.1,28.8,30.08,WSW,248,0.7,8.5,25,0.00,,,0.00,WUHU216HW,2013-04-12 17:30:00,
2013-04-12 10:35:00,65.9,29.7,30.08,NNW,338,2.5,6.0,26,0.00,,,0.00,WUHU216HW,2013-04-12 17:35:00,
2013-04-12 10:40:00,65.9,29.7,30.07,West,270,2.5,4.7,26,0.00,,,0.00,WUHU216HW,2013-04-12 17:40:00,
2013-04-12 10:47:00,65.0,26.9,30.08,ENE,68,2.0,7.2,24,0.00,,,0.00,WUHU216HW,2013-04-12 17:47:00,
2013-04-12 10:52:00,63.2,26.4,30.08,NE,45,7.2,7.2,25,0.00,,,0.00,WUHU216HW,2013-04-12 17:52:00,
2013-04-12 10:57:00,61.6,25.0,30.08,East,90,1.8,8.3,25,0.00,,,0.00,WUHU216HW,2013-04-12 17:57:00,
2013-04-12 11:02:00,61.7,27.1,30.08,ESE,113,2.5,9.2,27,0.00,,,0.00,WUHU216HW,2013-04-12 18:02:00,
2013-04-12 11:07:00,61.9,27.3,30.08,North,0,4.3,9.2,27,0.00,,,0.00,WUHU216HW,2013-04-12 18:07:00,
2013-04-12 11:12:00,61.9,27.3,30.08,NNE,23,2.9,6.9,27,0.00,,,0.00,WUHU216HW,2013-04-12 18:12:00,
2013-04-12 11:17:00,61.4,24.8,30.08,ENE,68,6.0,7.2,25,0.00,,,0.00,WUHU216HW,2013-04-12 18:17:00,
2013-04-12 11:23:00,60.7,27.1,30.08,ESE,113,2.9,7.2,28,0.00,,,0.00,WUHU216HW,2013-04-12 18:23:00,
2013-04-12 11:28:00,60.8,26.3,30.08,ESE,113,2.5,6.0,27,0.00,,,0.00,WUHU216HW,2013-04-12 18:28:00,
2013-04-12 11:29:00,61.0,26.5,30.08,NE,45,3.4,6.0,27,0.00,,,0.00,WUHU216HW,2013-04-12 18:29:00,
2013-04-12 11:41:00,61.9,25.3,30.08,ENE,68,4.7,8.3,25,0.00,,,0.00,WUHU216HW,2013-04-12 18:41:00,
2013-04-12 11:47:00,61.7,25.1,30.07,NNE,23,3.6,8.3,25,0.00,,,0.00,WUHU216HW,2013-04-12 18:47:00,
2013-04-12 11:53:00,63.2,26.4,30.07,North,0,4.7,8.7,25,0.00,,,0.00,WUHU216HW,2013-04-12 18:53:00,
2013-04-12 11:59:00,64.4,26.5,30.07,NNW,338,5.8,8.7,24,0.00,,,0.00,WUHU216HW,2013-04-12 18:59:00,
2013-04-12 12:05:00,65.7,28.5,30.07,SW,225,2.5,6.5,25,0.00,,,0.00,WUHU216HW,2013-04-12 19:05:00,
2013-04-12 12:11:00,66.6,29.3,30.07,ESE,113,3.6,7.8,25,0.00,,,0.00,WUHU216HW,2013-04-12 19:11:00,
2013-04-12 12:26:00,66.4,27.1,30.07,East,90,8.3,10.1,23,0.00,,,0.00,WUHU216HW,2013-04-12 19:26:00,
2013-04-12 12:31:00,66.6,27.3,30.07,ESE,113,5.4,10.1,23,0.00,,,0.00,WUHU216HW,2013-04-12 19:31:00,
2013-04-12 12:36:00,66.6,27.3,30.06,ESE,113,6.3,8.3,23,0.00,,,0.00,WUHU216HW,2013-04-12 19:36:00,
2013-04-12 12:41:00,65.9,26.6,30.07,ENE,68,4.0,8.5,23,0.00,,,0.00,WUHU216HW,2013-04-12 19:41:00,
2013-04-12 12:46:00,66.1,27.8,30.06,SSE,158,6.3,8.5,24,0.00,,,0.00,WUHU216HW,2013-04-12 19:46:00,
2013-04-12 12:51:00,66.4,26.1,30.06,NE,45,3.1,8.1,22,0.00,,,0.00,WUHU216HW,2013-04-12 19:51:00,
2013-04-12 12:56:00,65.3,25.2,30.06,NE,45,3.4,6.3,22,0.00,,,0.00,WUHU216HW,2013-04-12 19:56:00,
2013-04-12 13:01:00,64.4,25.5,30.06,NW,315,3.1,6.3,23,0.00,,,0.00,WUHU216HW,2013-04-12 20:01:00,
2013-04-12 13:06:00,64.4,25.5,30.06,ENE,68,2.9,5.4,23,0.00,,,0.00,WUHU216HW,2013-04-12 20:06:00,
2013-04-12 13:11:00,64.8,25.7,30.06,North,0,2.5,6.5,23,0.00,,,0.00,WUHU216HW,2013-04-12 20:11:00,
2013-04-12 13:16:00,64.6,26.7,30.06,South,180,4.5,6.5,24,0.00,,,0.00,WUHU216HW,2013-04-12 20:16:00,
2013-04-12 13:21:00,65.0,26.9,30.06,SE,135,1.3,5.4,24,0.00,,,0.00,WUHU216HW,2013-04-12 20:21:00,
2013-04-12 13:27:00,65.7,26.6,30.06,ENE,68,5.4,11.6,23,0.00,,,0.00,WUHU216HW,2013-04-12 20:27:00,
2013-04-12 13:32:00,66.1,26.8,30.06,SE,135,5.1,11.6,23,0.00,,,0.00,WUHU216HW,2013-04-12 20:32:00,
2013-04-12 13:37:00,66.4,26.1,30.06,NNE,23,2.2,8.5,22,0.00,,,0.00,WUHU216HW,2013-04-12 20:37:00,
2013-04-12 13:42:00,66.2,25.9,30.06,North,0,3.6,8.5,22,0.00,,,0.00,WUHU216HW,2013-04-12 20:42:00,
2013-04-12 13:47:00,65.2,24.0,30.06,NE,45,6.9,7.8,21,0.00,,,0.00,WUHU216HW,2013-04-12 20:47:00,
2013-04-12 13:52:00,64.3,24.3,30.05,NNE,23,5.4,8.3,22,0.00,,,0.00,WUHU216HW,2013-04-12 20:52:00,
2013-04-12 13:57:00,64.4,24.5,30.05,NNE,23,2.9,8.7,22,0.00,,,0.00,WUHU216HW,2013-04-12 20:57:00,
2013-04-12 14:02:00,64.1,25.2,30.05,North,0,4.0,8.7,23,0.00,,,0.00,WUHU216HW,2013-04-12 21:02:00,
2013-04-12 14:07:00,63.5,24.8,30.05,ESE,113,4.7,8.3,23,0.00,,,0.00,WUHU216HW,2013-04-12 21:07:00,
2013-04-12 14:12:00,63.2,24.4,30.05,NW,315,2.0,8.3,23,0.00,,,0.00,WUHU216HW,2013-04-12 21:12:00,
2013-04-12 14:17:00,63.4,24.6,30.05,ENE,68,3.8,8.1,23,0.00,,,0.00,WUHU216HW,2013-04-12 21:17:00,
2013-04-12 14:22:00,63.4,24.6,30.05,ENE,68,2.9,5.4,23,0.00,,,0.00,WUHU216HW,2013-04-12 21:22:00,
2013-04-12 14:27:00,63.7,24.8,30.05,NNE,23,4.3,6.3,23,0.00,,,0.00,WUHU216HW,2013-04-12 21:27:00,
2013-04-12 14:32:00,63.5,24.8,30.05,North,0,4.7,7.8,23,0.00,,,0.00,WUHU216HW,2013-04-12 21:32:00,
2013-04-12 14:37:00,63.7,25.8,30.05,SE,135,8.5,13.2,24,0.00,,,0.00,WUHU216HW,2013-04-12 21:37:00,
2013-04-12 14:42:00,64.1,26.2,30.05,SW,225,3.8,13.2,24,0.00,,,0.00,WUHU216HW,2013-04-12 21:42:00,
2013-04-12 14:47:00,64.4,26.5,30.04,SSE,158,7.4,7.8,24,0.00,,,0.00,WUHU216HW,2013-04-12 21:47:00,
2013-04-12 14:52:00,64.6,26.7,30.04,SSW,203,1.6,11.0,24,0.00,,,0.00,WUHU216HW,2013-04-12 21:52:00,
2013-04-12 14:57:00,64.4,26.5,30.04,ESE,113,7.8,11.0,24,0.00,,,0.00,WUHU216HW,2013-04-12 21:57:00,
2013-04-12 15:02:00,64.1,25.2,30.04,East,90,8.9,9.8,23,0.00,,,0.00,WUHU216HW,2013-04-12 22:02:00,
2013-04-12 15:07:00,62.6,25.9,30.04,ESE,113,7.2,11.4,25,0.00,,,0.00,WUHU216HW,2013-04-12 22:07:00,
2013-04-12 15:12:00,61.0,24.6,30.04,North,0,4.3,11.4,25,0.00,,,0.00,WUHU216HW,2013-04-12 22:12:00,
2013-04-12 15:17:00,61.2,24.7,30.04,NNW,338,6.7,11.2,25,0.00,,,0.00,WUHU216HW,2013-04-12 22:17:00,
2013-04-12 15:22:00,61.6,25.0,30.04,NNE,23,2.5,11.2,25,0.00,,,0.00,WUHU216HW,2013-04-12 22:22:00,
2013-04-12 15:27:00,61.9,25.3,30.04,SSE,158,7.4,7.4,25,0.00,,,0.00,WUHU216HW,2013-04-12 22:27:00,
2013-04-12 15:32:00,62.1,25.5,30.04,East,90,8.9,9.2,25,0.00,,,0.00,WUHU216HW,2013-04-12 22:32:00,
2013-04-12 15:37:00,62.1,26.5,30.04,North,0,1.1,9.2,26,0.00,,,0.00,WUHU216HW,2013-04-12 22:37:00,
2013-04-12 15:42:00,61.7,24.2,30.04,North,0,3.1,9.2,24,0.00,,,0.00,WUHU216HW,2013-04-12 22:42:00,
2013-04-12 15:47:00,61.6,24.0,30.04,NNW,338,0.9,5.4,24,0.00,,,0.00,WUHU216HW,2013-04-12 22:47:00,
2013-04-12 15:52:00,61.9,25.3,30.04,NNW,338,2.9,4.7,25,0.00,,,0.00,WUHU216HW,2013-04-12 22:52:00,
2013-04-12 15:57:00,61.9,25.3,30.04,North,0,5.8,7.6,25,0.00,,,0.00,WUHU216HW,2013-04-12 22:57:00,
2013-04-12 16:02:00,61.2,23.8,30.04,West,270,1.8,7.6,24,0.00,,,0.00,WUHU216HW,2013-04-12 23:02:00,
2013-04-12 16:07:00,60.8,26.3,30.04,SSE,158,9.8,12.8,27,0.00,,,0.00,WUHU216HW,2013-04-12 23:07:00,
2013-04-12 16:12:00,60.8,27.3,30.04,SSW,203,6.3,12.8,28,0.00,,,0.00,WUHU216HW,2013-04-12 23:12:00,
2013-04-12 16:17:00,61.2,27.5,30.04,SW,225,3.8,10.1,28,0.00,,,0.00,WUHU216HW,2013-04-12 23:17:00,
2013-04-12 16:22:00,61.2,27.5,30.05,SW,225,7.6,10.3,28,0.00,,,0.00,WUHU216HW,2013-04-12 23:22:00,
2013-04-12 16:27:00,60.3,27.8,30.05,West,270,8.5,14.3,29,0.00,,,0.00,WUHU216HW,2013-04-12 23:27:00,
2013-04-12 16:32:00,59.4,28.7,30.05,SW,225,8.9,15.2,31,0.00,,,0.00,WUHU216HW,2013-04-12 23:32:00,
2013-04-12 16:37:00,59.0,29.8,30.05,SW,225,12.8,15.2,33,0.00,,,0.00,WUHU216HW,2013-04-12 23:37:00,
2013-04-12 16:42:00,59.0,29.8,30.05,SSW,203,7.2,12.8,33,0.00,,,0.00,WUHU216HW,2013-04-12 23:42:00,
2013-04-12 16:47:00,58.9,29.7,30.06,West,270,9.6,12.8,33,0.00,,,0.00,WUHU216HW,2013-04-12 23:47:00,
2013-04-12 16:52:00,58.9,29.7,30.06,South,180,8.5,9.6,33,0.00,,,0.00,WUHU216HW,2013-04-12 23:52:00,
2013-04-12 16:57:00,58.9,29.7,30.05,SSW,203,5.4,9.6,33,0.00,,,0.00,WUHU216HW,2013-04-12 23:57:00,
2013-04-12 17:02:00,59.0,29.8,30.06,South,180,5.1,9.2,33,0.00,,,0.00,WUHU216HW,2013-04-13 00:02:00,
2013-04-12 17:07:00,59.0,29.8,30.06,South,180,3.4,8.7,33,0.00,,,0.00,WUHU216HW,2013-04-13 00:07:00,
2013-04-12 17:12:00,58.7,29.5,30.06,South,180,6.3,7.4,33,0.00,,,0.00,WUHU216HW,2013-04-13 00:12:00,
2013-04-12 17:17:00,58.7,29.5,30.06,SSE,158,4.0,8.9,33,0.00,,,0.00,WUHU216HW,2013-04-13 00:17:00,
2013-04-12 17:22:00,58.5,29.3,30.05,SSE,158,7.4,8.9,33,0.00,,,0.00,WUHU216HW,2013-04-13 00:22:00,
2013-04-12 17:27:00,58.3,29.2,30.05,SSE,158,3.4,7.6,33,0.00,,,0.00,WUHU216HW,2013-04-13 00:27:00,
2013-04-12 17:32:00,58.1,29.7,30.04,SE,135,4.5,8.5,34,0.00,,,0.00,WUHU216HW,2013-04-13 00:32:00,
2013-04-12 17:37:00,58.1,29.7,30.05,SSE,158,6.3,8.5,34,0.00,,,0.00,WUHU216HW,2013-04-13 00:37:00,
2013-04-12 17:42:00,58.1,29.7,30.04,South,180,6.5,11.0,34,0.00,,,0.00,WUHU216HW,2013-04-13 00:42:00,
2013-04-12 17:47:00,58.3,29.9,30.04,South,180,9.2,11.0,34,0.00,,,0.00,WUHU216HW,2013-04-13 00:47:00,
2013-04-12 17:52:00,58.1,29.7,30.04,SSE,158,9.2,10.7,34,0.00,,,0.00,WUHU216HW,2013-04-13 00:52:00,
2013-04-12 17:57:00,57.8,29.4,30.04,SSE,158,7.8,10.1,34,0.00,,,0.00,WUHU216HW,2013-04-13 00:57:00,
2013-04-12 18:02:00,57.4,29.1,30.04,SW,225,4.7,10.1,34,0.00,,,0.00,WUHU216HW,2013-04-13 01:02:00,
2013-04-12 18:07:00,57.2,28.9,30.04,SSE,158,3.1,7.8,34,0.00,,,0.00,WUHU216HW,2013-04-13 01:07:00,
2013-04-12 18:13:00,57.1,28.7,30.04,SW,225,2.2,6.0,34,0.00,,,0.00,WUHU216HW,2013-04-13 01:13:00,
2013-04-12 18:18:00,56.9,28.6,30.04,SSW,203,4.5,5.1,34,0.00,,,0.00,WUHU216HW,2013-04-13 01:18:00,
2013-04-12 18:22:00,56.7,28.5,30.04,SSW,203,4.0,5.1,34,0.00,,,0.00,WUHU216HW,2013-04-13 01:22:00,
2013-04-12 18:28:00,56.5,28.3,30.04,SW,225,3.6,5.1,34,0.00,,,0.00,WUHU216HW,2013-04-13 01:28:00,
2013-04-12 18:33:00,56.2,27.9,30.04,SSW,203,2.5,4.7,34,0.00,,,0.00,WUHU216HW,2013-04-13 01:33:00,
2013-04-12 18:38:00,55.8,27.6,30.04,SSW,203,2.5,4.3,34,0.00,,,0.00,WUHU216HW,2013-04-13 01:38:00,
2013-04-12 18:43:00,55.6,28.2,30.05,SE,135,0.7,4.0,35,0.00,,,0.00,WUHU216HW,2013-04-13 01:43:00,
2013-04-12 18:48:00,55.4,28.7,30.04,East,90,0.9,1.8,36,0.00,,,0.00,WUHU216HW,2013-04-13 01:48:00,
2013-04-12 18:53:00,54.9,28.3,30.04,NE,45,0.0,1.1,36,0.00,,,0.00,WUHU216HW,2013-04-13 01:53:00,
2013-04-12 18:58:00,54.5,27.9,30.05,NE,45,1.1,2.5,36,0.00,,,0.00,WUHU216HW,2013-04-13 01:58:00,
2013-04-12 19:03:00,54.2,27.6,30.05,North,0,0.7,2.5,36,0.00,,,0.00,WUHU216HW,2013-04-13 02:03:00,
2013-04-12 19:08:00,54.0,28.2,30.05,South,180,1.6,1.8,37,0.00,,,0.00,WUHU216HW,2013-04-13 02:08:00,
2013-04-12 19:13:00,53.5,27.6,30.05,SSW,203,2.7,4.7,37,0.00,,,0.00,WUHU216HW,2013-04-13 02:13:00,
2013-04-12 19:18:00,52.6,27.5,30.05,SW,225,1.1,4.7,38,0.00,,,0.00,WUHU216HW,2013-04-13 02:18:00,
2013-04-12 19:23:00,52.0,27.1,30.05,SSW,203,2.0,4.0,38,0.00,,,0.00,WUHU216HW,2013-04-13 02:23:00,
2013-04-12 19:28:00,51.3,27.1,30.06,South,180,0.9,3.1,39,0.00,,,0.00,WUHU216HW,2013-04-13 02:28:00,
2013-04-12 19:33:00,50.8,27.3,30.06,SE,135,0.0,3.1,40,0.00,,,0.00,WUHU216HW,2013-04-13 02:33:00,
2013-04-12 19:38:00,50.0,26.6,30.06,SSW,203,0.4,2.9,40,0.00,,,0.00,WUHU216HW,2013-04-13 02:38:00,
2013-04-12 19:43:00,49.3,26.0,30.06,SSE,158,2.7,2.7,40,0.00,,,0.00,WUHU216HW,2013-04-13 02:43:00,
2013-04-12 19:48:00,48.8,25.5,30.06,SE,135,0.9,4.0,40,0.00,,,0.00,WUHU216HW,2013-04-13 02:48:00,
2013-04-12 19:53:00,48.2,25.6,30.07,SE,135,1.6,4.0,41,0.00,,,0.00,WUHU216HW,2013-04-13 02:53:00,
2013-04-12 19:58:00,47.5,25.5,30.07,SSW,203,3.6,3.8,42,0.00,,,0.00,WUHU216HW,2013-04-13 02:58:00,
2013-04-12 20:03:00,46.8,24.9,30.07,South,180,1.1,4.0,42,0.00,,,0.00,WUHU216HW,2013-04-13 03:03:00,
2013-04-12 20:08:00,46.4,25.0,30.07,SSE,158,1.1,4.0,43,0.00,,,0.00,WUHU216HW,2013-04-13 03:08:00,
2013-04-12 20:13:00,46.1,25.2,30.07,SSE,158,0.7,2.0,44,0.00,,,0.00,WUHU216HW,2013-04-13 03:13:00,
2013-04-12 20:18:00,45.4,25.1,30.08,NNW,338,0.0,2.5,45,0.00,,,0.00,WUHU216HW,2013-04-13 03:18:00,
2013-04-12 20:23:00,45.0,24.9,30.07,SSE,158,3.4,3.4,45,0.00,,,0.00,WUHU216HW,2013-04-13 03:23:00,
2013-04-12 20:28:00,44.8,25.2,30.07,SE,135,2.7,4.3,46,0.00,,,0.00,WUHU216HW,2013-04-13 03:28:00,
2013-04-12 20:33:00,44.6,25.0,30.07,SE,135,2.2,4.3,46,0.00,,,0.00,WUHU216HW,2013-04-13 03:33:00,
2013-04-12 20:38:00,44.3,25.2,30.08,NW,315,2.7,3.8,47,0.00,,,0.00,WUHU216HW,2013-04-13 03:38:00,
2013-04-12 20:43:00,43.7,25.3,30.08,WNW,293,0.9,5.1,48,0.00,,,0.00,WUHU216HW,2013-04-13 03:43:00,
2013-04-12 20:48:00,43.6,25.1,30.08,ESE,113,1.1,5.1,48,0.00,,,0.00,WUHU216HW,2013-04-13 03:48:00,
2013-04-12 20:53:00,43.6,25.1,30.08,SE,135,3.8,3.8,48,0.00,,,0.00,WUHU216HW,2013-04-13 03:53:00,
2013-04-12 20:58:00,43.6,25.7,30.08,South,180,2.2,3.8,49,0.00,,,0.00,WUHU216HW,2013-04-13 03:58:00,
2013-04-12 21:00:00,43.6,25.7,30.08,SE,135,1.1,3.8,49,0.00,,,0.00,WUHU216HW,2013-04-13 04:00:00,
2013-04-12 21:05:00,43.2,25.4,30.08,SE,135,0.4,3.4,49,0.00,,,0.00,WUHU216HW,2013-04-13 04:05:00,
2013-04-12 21:10:00,42.8,25.0,30.08,NNW,338,0.4,3.1,49,0.00,,,0.00,WUHU216HW,2013-04-13 04:10:00,
2013-04-12 21:15:00,42.8,25.0,30.08,WNW,293,0.0,2.5,49,0.00,,,0.00,WUHU216HW,2013-04-13 04:15:00,
2013-04-12 21:20:00,42.8,25.6,30.09,WNW,293,0.0,0.9,50,0.00,,,0.00,WUHU216HW,2013-04-13 04:20:00,
2013-04-12 21:25:00,42.8,25.6,30.09,East,90,1.3,1.6,50,0.00,,,0.00,WUHU216HW,2013-04-13 04:25:00,
2013-04-12 21:30:00,42.8,25.6,30.09,SE,135,0.9,1.6,50,0.00,,,0.00,WUHU216HW,2013-04-13 04:30:00,
2013-04-12 21:35:00,42.8,26.0,30.09,ESE,113,0.0,1.1,51,0.00,,,0.00,WUHU216HW,2013-04-13 04:35:00,
2013-04-12 21:40:00,43.0,26.2,30.09,SSE,158,1.8,2.2,51,0.00,,,0.00,WUHU216HW,2013-04-13 04:40:00,
2013-04-12 21:45:00,43.0,26.2,30.09,SSW,203,1.1,2.2,51,0.00,,,0.00,WUHU216HW,2013-04-13 04:45:00,
2013-04-12 21:50:00,43.0,26.6,30.10,West,270,7.2,7.2,52,0.00,,,0.00,WUHU216HW,2013-04-13 04:50:00,
2013-04-12 21:55:00,43.6,27.1,30.10,SW,225,6.0,7.2,52,0.00,,,0.00,WUHU216HW,2013-04-13 04:55:00,
2013-04-12 22:00:00,43.9,27.5,30.10,West,270,3.8,7.2,52,0.00,,,0.00,WUHU216HW,2013-04-13 05:00:00,
2013-04-12 22:05:00,44.3,27.3,30.10,West,270,5.4,6.5,51,0.00,,,0.00,WUHU216HW,2013-04-13 05:05:00,
2013-04-12 22:10:00,44.3,27.3,30.10,West,270,4.5,6.5,51,0.00,,,0.00,WUHU216HW,2013-04-13 05:10:00,
2013-04-12 22:15:00,44.3,26.8,30.10,WSW,248,3.4,5.6,50,0.00,,,0.00,WUHU216HW,2013-04-13 05:15:00,
2013-04-12 22:20:00,44.5,27.0,30.10,West,270,2.2,4.9,50,0.00,,,0.00,WUHU216HW,2013-04-13 05:20:00,
2013-04-12 22:25:00,44.5,27.0,30.10,WNW,293,2.2,4.9,50,0.00,,,0.00,WUHU216HW,2013-04-13 05:25:00,
2013-04-12 22:30:00,44.6,27.2,30.10,WSW,248,2.9,4.7,50,0.00,,,0.00,WUHU216HW,2013-04-13 05:30:00,
2013-04-12 22:35:00,44.8,27.4,30.10,WNW,293,2.0,6.0,50,0.00,,,0.00,WUHU216HW,2013-04-13 05:35:00,
2013-04-12 22:40:00,44.8,27.4,30.10,WSW,248,2.5,6.0,50,0.00,,,0.00,WUHU216HW,2013-04-13 05:40:00,
2013-04-12 22:45:00,44.8,27.4,30.10,SW,225,3.6,4.7,50,0.00,,,0.00,WUHU216HW,2013-04-13 05:45:00,
2013-04-12 22:50:00,44.8,27.4,30.10,West,270,2.7,4.7,50,0.00,,,0.00,WUHU216HW,2013-04-13 05:50:00,
2013-04-12 22:55:00,44.8,27.4,30.10,West,270,3.4,4.3,50,0.00,,,0.00,WUHU216HW,2013-04-13 05:55:00,
2013-04-12 23:00:00,44.8,27.4,30.10,WSW,248,4.0,4.7,50,0.00,,,0.00,WUHU216HW,2013-04-13 06:00:00,
2013-04-12 23:05:00,44.8,27.4,30.10,West,270,3.4,6.9,50,0.00,,,0.00,WUHU216HW,2013-04-13 06:05:00,
2013-04-12 23:10:00,44.8,27.4,30.11,West,270,2.5,6.9,50,0.00,,,0.00,WUHU216HW,2013-04-13 06:10:00,
2013-04-12 23:15:00,45.0,27.6,30.10,WSW,248,2.9,5.4,50,0.00,,,0.00,WUHU216HW,2013-04-13 06:15:00,
2013-04-12 23:20:00,45.0,27.6,30.10,WSW,248,2.0,5.4,50,0.00,,,0.00,WUHU216HW,2013-04-13 06:20:00,
2013-04-12 23:25:00,44.8,27.4,30.10,NW,315,1.8,3.6,50,0.00,,,0.00,WUHU216HW,2013-04-13 06:25:00,
2013-04-12 23:30:00,44.6,27.2,30.10,WNW,293,3.1,3.4,50,0.00,,,0.00,WUHU216HW,2013-04-13 06:30:00,
2013-04-12 23:35:00,44.6,27.2,30.10,WSW,248,3.4,4.3,50,0.00,,,0.00,WUHU216HW,2013-04-13 06:35:00,
2013-04-12 23:40:00,44.6,27.2,30.09,WSW,248,2.5,4.3,50,0.00,,,0.00,WUHU216HW,2013-04-13 06:40:00,
2013-04-12 23:45:00,44.5,27.0,30.09,WSW,248,2.7,4.3,50,0.00,,,0.00,WUHU216HW,2013-04-13 06:45:00,
2013-04-12 23:51:00,44.3,26.8,30.09,WSW,248,2.7,4.0,50,0.00,,,0.00,WUHU216HW,2013-04-13 06:51:00,
2013-04-12 23:56:00,44.1,26.7,30.09,West,270,3.8,4.0,50,0.00,,,0.00,WUHU216HW,2013-04-13 06:56:00,